Gerona, Spain

5:12 AM CET on February 20, 2017 (GMT +0100)
Girona

Weather History for LEGE - December, 2013

Change the Weather History Date:

Sunday, December 29, 2013

  Actual Average Record
Temperature  
Mean Temperature 46 °F -  
Max Temperature 57 °F 55 °F 66 °F (2015)
Min Temperature 35 °F 35 °F 24 °F (2005)
Degree Days  
Heating Degree Days 19    
Moisture  
Dew Point 39 °F    
Average Humidity 76    
Maximum Humidity 100    
Minimum Humidity 40    
Precipitation  
Precipitation 0.00 in 0.08 in - ()
Sea Level Pressure  
Sea Level Pressure 30.21 in    
Wind  
Wind Speed 2 mph ()    
Max Wind Speed 7 mph    
Max Gust Speed -    
Visibility 6.9 miles    
Events      
Averages and records for this station are not official NWS values.
T = Trace of Precipitation, MM = Missing Value Source: Averaged Metar Reports

Daily Weather History Graph

Daily Weather History Graph

Search for Another Location

Airport or City:

Trip Planner

Search our weather history database for the weather conditions in past years. The results will help you decide how hot, cold, wet, or windy it might be!

Date:

Astronomy

Dec. 29, 2013 Rise Set
Actual Time 8:16 AM CET 5:25 PM CET
Civil Twilight 7:44 AM CET 5:57 PM CET
Nautical Twilight 7:09 AM CET 6:32 PM CET
Astronomical Twilight 6:35 AM CET 7:06 PM CET
Moon 4:41 AM CET (12/29) 2:52 PM CET (12/29)
Length of Visible Light 10h 13m
Length of Day
9h 09m
Waning Crescent, 13% of the Moon is Illuminated
Dec 29
Waning Crescent
Jan 1
New
Jan 8
First Quarter
Jan 16
Full
Jan 24
Last Quarter

Hourly Weather History & Observations

Time (CET) Temp. Windchill Dew Point Humidity Pressure Visibility Wind Dir Wind Speed Gust Speed Precip Events Conditions
12:00 AM 43 °F - 39 °F 79% 30.05 in - Calm Calm - -  
12:00 AM 42.8 °F - 39.2 °F 87% 30.04 in 6.2 mi Calm Calm - N/A   Mostly Cloudy
12:30 AM 44.6 °F - 39.2 °F 81% 30.04 in 6.2 mi Variable 2.3 mph - N/A   Scattered Clouds
1:00 AM 44 °F - 36 °F 65% 30.06 in 9 mi North 6.9 mph - -   Scattered Clouds
1:00 AM 44.6 °F 41.4 °F 37.4 °F 76% 30.06 in 6.2 mi North 5.8 mph - N/A   Scattered Clouds
1:30 AM 42.8 °F 39.3 °F 35.6 °F 76% 30.06 in 6.2 mi North 5.8 mph - N/A   Partly Cloudy
2:00 AM 46 °F - 36 °F 57% 30.08 in - North 4.6 mph - -  
2:00 AM 46.4 °F 45.2 °F 35.6 °F 66% 30.06 in 6.2 mi North 3.5 mph - N/A   Partly Cloudy
2:30 AM 44.6 °F 41.4 °F 37.4 °F 76% 30.09 in 6.2 mi NNE 5.8 mph - N/A   Partly Cloudy
3:00 AM 46 °F - 38 °F 63% 30.10 in - NNW 2.3 mph - -  
3:00 AM 46.4 °F - 37.4 °F 71% 30.09 in 6.2 mi Variable 2.3 mph - N/A   Scattered Clouds
3:30 AM 44.6 °F - 37.4 °F 76% 30.09 in 6.2 mi NW 1.2 mph - N/A   Scattered Clouds
4:00 AM 45 °F - 38 °F 69% 30.11 in - NW 1.2 mph - -  
4:00 AM 46.4 °F - 37.4 °F 71% 30.09 in 6.2 mi NW 2.3 mph - N/A   Scattered Clouds
4:30 AM 44.6 °F - 39.2 °F 81% 30.09 in 6.2 mi Variable 2.3 mph - N/A   Mostly Cloudy
5:00 AM 43 °F - 39 °F 79% 30.12 in - Calm Calm - -  
5:00 AM 42.8 °F - 39.2 °F 87% 30.09 in 6.2 mi Calm Calm - N/A   Mostly Cloudy
5:30 AM 41.0 °F - 37.4 °F 87% 30.12 in 6.2 mi Calm Calm - N/A   Scattered Clouds
6:00 AM 40 °F - 37 °F 87% 30.13 in - NNE 2.3 mph - -  
6:00 AM 39.2 °F - 37.4 °F 93% 30.12 in 6.2 mi Variable 2.3 mph - N/A   Partly Cloudy
6:30 AM 41.0 °F - 37.4 °F 87% 30.12 in 6.2 mi Variable 1.2 mph - N/A   Partly Cloudy
7:00 AM 38 °F - 36 °F 92% 30.15 in 6 mi NNE 2.3 mph - -   Scattered Clouds
7:00 AM 37.4 °F - 35.6 °F 93% 30.12 in 6.2 mi Variable 1.2 mph - N/A   Partly Cloudy
7:30 AM 37.4 °F - 35.6 °F 93% 30.15 in 6.2 mi Variable 1.2 mph - N/A   Partly Cloudy
8:00 AM 37 °F - 36 °F 92% 30.19 in - Calm Calm - -  
8:00 AM 35.6 °F - 35.6 °F 100% 30.18 in 6.2 mi Calm Calm - N/A   Partly Cloudy
8:30 AM 39.2 °F - 37.4 °F 93% 30.18 in 6.2 mi Calm Calm - N/A   Scattered Clouds
9:00 AM 37 °F - 36 °F 97% 30.22 in - West 1.2 mph - -  
9:00 AM 37.4 °F - 37.4 °F 100% 30.21 in 6.2 mi Variable 2.3 mph - N/A   Scattered Clouds
9:30 AM 39.2 °F - 39.2 °F 100% 30.21 in 6.2 mi Calm Calm - N/A   Scattered Clouds
10:00 AM 43 °F - 39 °F 81% 30.23 in 25 mi Calm Calm - -   Partly Cloudy
10:00 AM 42.8 °F - 39.2 °F 87% 30.21 in 6.2 mi Variable 1.2 mph - N/A   Scattered Clouds
10:30 AM 42.8 °F - 39.2 °F 87% 30.24 in 6.2 mi Variable 1.2 mph - N/A   Partly Cloudy
11:00 AM 46 °F - 40 °F 74% 30.26 in - Calm Calm - -  
11:00 AM 44.6 °F - 39.2 °F 81% 30.24 in 6.2 mi Calm Calm - N/A   Scattered Clouds
11:30 AM 46.4 °F - 41.0 °F 81% 30.24 in 6.2 mi Calm Calm - N/A   Scattered Clouds
12:00 PM 51 °F - 39 °F 53% 30.24 in - NE 2.3 mph - -  
12:00 PM 50.0 °F - 39.2 °F 66% 30.24 in 6.2 mi Variable 2.3 mph - N/A   Scattered Clouds
12:30 PM 51.8 °F - 37.4 °F 58% 30.24 in 6.2 mi ENE 3.5 mph - N/A   Partly Cloudy
1:00 PM 54 °F - 39 °F 45% 30.23 in 19 mi NNE 3.5 mph - -   Scattered Clouds
1:00 PM 53.6 °F - 37.4 °F 54% 30.24 in 6.2 mi NNE 3.5 mph - N/A   Partly Cloudy
1:30 PM 55.4 °F - 39.2 °F 54% 30.21 in 6.2 mi Calm Calm - N/A   Partly Cloudy
2:00 PM 54 °F - 40 °F 47% 30.22 in - SSW 2.3 mph - -  
2:00 PM 51.8 °F - 39.2 °F 62% 30.21 in 6.2 mi Calm Calm - N/A   Scattered Clouds
2:30 PM 55.4 °F - 41.0 °F 58% 30.21 in 6.2 mi Variable 1.2 mph - N/A   Scattered Clouds
3:00 PM 57 °F - 41 °F 44% 30.21 in - South 3.5 mph - -  
3:00 PM 55.4 °F - 41.0 °F 58% 30.21 in 6.2 mi Variable 2.3 mph - N/A   Scattered Clouds
3:30 PM 55.4 °F - 39.2 °F 54% 30.24 in 6.2 mi Calm Calm - N/A   Scattered Clouds
4:00 PM 58 °F - 40 °F 40% 30.24 in 16 mi Calm Calm - -   Partly Cloudy
4:00 PM 55.4 °F - 39.2 °F 54% 30.24 in 6.2 mi Calm Calm - N/A   Scattered Clouds
4:30 PM 53.6 °F - 39.2 °F 58% 30.24 in 6.2 mi Calm Calm - N/A   Scattered Clouds
5:00 PM 52 °F - 41 °F 57% 30.26 in - SSW 3.5 mph - -  
5:00 PM 51.8 °F - 41.0 °F 67% 30.27 in 6.2 mi SSW 3.5 mph - N/A   Scattered Clouds
5:30 PM 50.0 °F - 42.8 °F 76% 30.27 in 6.2 mi Calm Calm - N/A   Scattered Clouds
6:00 PM 51 °F - 42 °F 62% 30.29 in - WSW 2.3 mph - -  
6:00 PM 51.8 °F - 42.8 °F 71% 30.27 in 6.2 mi Variable 1.2 mph - N/A   Scattered Clouds
6:30 PM 48.2 °F - 41.0 °F 76% 30.30 in 6.2 mi SE 2.3 mph - N/A   Scattered Clouds
7:00 PM 47 °F - 42 °F 76% 30.31 in 16 mi South 3.5 mph - -   Partly Cloudy
7:00 PM 46.4 °F 45.2 °F 41.0 °F 81% 30.30 in 6.2 mi South 3.5 mph - N/A   Scattered Clouds
7:30 PM 46.4 °F - 42.8 °F 87% 30.30 in 6.2 mi South 1.2 mph - N/A   Partly Cloudy
8:00 PM 45 °F - 41 °F 81% 30.32 in - West 2.3 mph - -  
8:00 PM 46.4 °F - 41.0 °F 81% 30.33 in 6.2 mi Variable 1.2 mph - N/A   Partly Cloudy
8:30 PM 41.0 °F - 39.2 °F 93% 30.33 in 6.2 mi NNE 2.3 mph - N/A   Partly Cloudy
9:00 PM 40 °F - 39 °F 96% 30.34 in - Calm Calm - -  
9:00 PM 39.2 °F - 37.4 °F 93% 30.33 in 6.2 mi NE 1.2 mph - N/A   Partly Cloudy
9:30 PM 39.2 °F - 37.4 °F 93% 30.33 in 6.2 mi Variable 1.2 mph - N/A   Partly Cloudy
10:00 PM 42 °F - 37 °F 75% 30.35 in 9 mi NW 3.5 mph - -   Scattered Clouds
10:00 PM 44.6 °F - 37.4 °F 76% 30.33 in 6.2 mi NW 2.3 mph - N/A   Partly Cloudy
10:30 PM 39.2 °F - 35.6 °F 87% 30.33 in 6.2 mi Calm Calm - N/A   Partly Cloudy
11:00 PM 37 °F - 34 °F 84% 30.36 in - SSW 2.3 mph - -  
11:00 PM 37.4 °F - 35.6 °F 93% 30.33 in 6.2 mi Calm Calm - N/A   Partly Cloudy
11:30 PM 35.6 °F - 33.8 °F 93% 30.36 in 6.2 mi NE 1.2 mph - N/A   Partly Cloudy